Terug naar catalogus

THOR ABLESTAR DEB

ActiefPO
NORAD 2432·DEBRIS·🇺🇸 United States

Gelanceerd Dec 5, 1963 vanaf Vandenberg Space Force Base

Loading…

Volgende Passages (komende 24 uur)

TLE

VersSource: Space-Track

Epoch: Sep 14, 2026, 11:14 UTC

1 02432U 63049G   26257.46859605  .00000055  00000-0  72919-4 0  9990
2 02432  89.9180  69.9283 0033624 340.6929  47.4723 13.48269848 84738

Volg THOR ABLESTAR DEB in realtime met AllMySat

Download on the App Store